Weather History for PACD - July, 2013

Change the Weather History Date:

Sunday, July 28, 2013

  Actual Average Record
Temperature  
Mean Temperature 56 °F 52 °F  
Max Temperature 59 °F 56 °F 68 °F (1977)
Min Temperature 53 °F 48 °F 38 °F (1972)
Degree Days  
Heating Degree Days 9 13  
Month to date heating degree days 321 399  
Since 1 June heating degree days 830 961  
Since 1 July heating degree days 321 399  
Cooling Degree Days 0    
Month to date cooling degree days 0  
Year to date cooling degree days 0  
Since 1 June cooling degree days 0  
Growing Degree Days 7 (Base 50)    
Moisture  
Dew Point 51 °F    
Average Humidity 80    
Maximum Humidity 93    
Minimum Humidity 64    
Precipitation  
Precipitation 0.00 in 0.09 in 1.04 in (1955)
Month to date precipitation 2.93 2.20  
Year to date precipitation 20.69 18.78  
Snow  
Snow 0.00 in 0.00 in 0.00 in (2015)
Month to date snowfall 0.0 0.0  
Since 1 June snowfall 0.0 0.0  
Since 1 July snowfall 0.0 0.0  
Snow Depth 0.00 in    
Sea Level Pressure  
Sea Level Pressure 30.32 in    
Wind  
Wind Speed 3 mph (ESE)    
Max Wind Speed 8 mph    
Max Gust Speed 9 mph    
Visibility 10 miles    
Events      
T = Trace of Precipitation, MM = Missing Value Source: NWS Daily Summary

Daily Weather History Graph

Daily Weather History Graph

Search for Another Location

Airport or City:

Trip Planner

Search our weather history database for the weather conditions in past years. The results will help you decide how hot, cold, wet, or windy it might be!

Date:

Astronomy

Jul. 28, 2013 Rise Set
Actual Time 6:52 AM AKDT 11:01 PM AKDT
Civil Twilight 6:04 AM AKDT 11:48 PM AKDT
Nautical Twilight 4:52 AM AKDT 12:59 AM AKDT
Astronomical Twilight 3:29 AM AKDT 2:24 AM AKDT
Moon 12:39 AM AKDT (7/28) 3:11 PM AKDT (7/28)
Length of Visible Light 17h 44m
Length of Day
16h 08m
Waning Gibbous, 59% of the Moon is Illuminated
Jul 28
Waning Gibbous
Jul 29
Last Quarter
Aug 6
New
Aug 14
First Quarter
Aug 20
Full

Hourly Weather History & Observations

Time (AKDT) Temp. Dew Point Humidity Pressure Visibility Wind Dir Wind Speed Gust Speed Precip Events Conditions
12:53 AM 55.0 °F 52.0 °F 89% 30.36 in 10.0 mi South 5.8 mph - N/A   Overcast
1:53 AM 54.0 °F 51.1 °F 90% 30.36 in 10.0 mi South 5.8 mph - N/A   Overcast
2:53 AM 54.0 °F 51.1 °F 90% 30.35 in 10.0 mi SE 4.6 mph - N/A   Overcast
3:53 AM 54.0 °F 50.0 °F 86% 30.35 in 10.0 mi South 5.8 mph - N/A   Overcast
4:53 AM 53.1 °F 51.1 °F 93% 30.34 in 10.0 mi Calm Calm - N/A   Overcast
5:53 AM 53.1 °F 50.0 °F 89% 30.34 in 10.0 mi ESE 3.5 mph - N/A   Overcast
6:53 AM 53.1 °F 50.0 °F 89% 30.33 in 10.0 mi Calm Calm - N/A   Overcast
7:53 AM 53.1 °F 51.1 °F 93% 30.33 in 10.0 mi Calm Calm - N/A   Overcast
8:53 AM 55.9 °F 51.1 °F 84% 30.33 in 10.0 mi Calm Calm - N/A   Overcast
9:53 AM 55.9 °F 51.1 °F 84% 30.33 in 10.0 mi Calm Calm - N/A   Overcast
10:53 AM 55.9 °F 52.0 °F 87% 30.33 in 10.0 mi Calm Calm - N/A   Overcast
11:50 AM 59.0 °F 50.0 °F 72% 30.32 in 10.0 mi Calm Calm - N/A   Overcast
11:53 AM 59.0 °F 48.9 °F 69% 30.33 in 10.0 mi Calm Calm - N/A   Overcast
12:53 PM 57.9 °F 51.1 °F 78% 30.33 in 10.0 mi East 3.5 mph - N/A   Overcast
1:53 PM 59.0 °F 51.1 °F 75% 30.32 in 10.0 mi East 4.6 mph - N/A   Overcast
2:53 PM 59.0 °F 50.0 °F 72% 30.32 in 10.0 mi East 3.5 mph - N/A   Overcast
3:01 PM 60.8 °F 51.8 °F 72% 30.32 in 10.0 mi East 3.5 mph - N/A   Overcast
3:53 PM 60.1 °F 51.1 °F 72% 30.32 in 10.0 mi ENE 4.6 mph - N/A   Overcast
4:53 PM 59.0 °F 50.0 °F 72% 30.31 in 10.0 mi Calm Calm - N/A   Overcast
5:53 PM 60.1 °F 48.9 °F 67% 30.30 in 10.0 mi West 4.6 mph - N/A   Overcast
6:53 PM 60.1 °F 51.1 °F 72% 30.29 in 10.0 mi Calm Calm - N/A   Overcast
7:53 PM 57.9 °F 52.0 °F 81% 30.28 in 10.0 mi North 4.6 mph - N/A   Overcast
8:03 PM 59.0 °F 51.8 °F 77% 30.28 in 10.0 mi NNW 3.5 mph - N/A   Overcast
8:53 PM 57.9 °F 52.0 °F 81% 30.28 in 10.0 mi Calm Calm - N/A   Overcast
9:53 PM 57.9 °F 52.0 °F 81% 30.27 in 10.0 mi Calm Calm - N/A   Overcast
10:40 PM 57.2 °F 53.6 °F 88% 30.26 in 10.0 mi Calm Calm - N/A   Overcast
10:53 PM 55.9 °F 52.0 °F 87% 30.27 in 10.0 mi Calm Calm - N/A   Overcast
11:53 PM 55.9 °F 51.1 °F 84% 30.27 in 10.0 mi SSE 6.9 mph - N/A   Overcast